Simultaneous Nadir Overpasses (SNOs) Predictions

Prediction of SNOs between AQUA and METOP-B Satellite Orbit:

Table of predicted SNOs for the next 14.0 days since TLE Epoch: 8/20/2022
Index Date (AQUA) Time (AQUA) Lat,Lon (AQUA) SZA (AQUA ) Date (METOP-B) Time (METOP-B) Lat,Lon (METOP-B) SZA (METOP-B ) Distance(km) Time Diff (sec)
1 08/20/2022 19:54:48 73.82,-123.51 61.57 08/20/2022 19:53:37 73.76,-124.45 61.56 29.73 71
2 08/20/2022 20:44:18 -74.06, 43.58 118.16 08/20/2022 20:44:13 -74.04, 43.54 118.18 2.99 5
3 08/20/2022 21:33:46 74.12,-148.92 61.92 08/20/2022 21:34:51 74.14,-148.88 61.93 1.97 65
4 08/23/2022 15:28:25 74.05, -57.41 62.76 08/23/2022 15:27:51 74.04, -57.36 62.76 1.52 34
5 08/23/2022 16:17:52 -74.13, 110.04 117.14 08/23/2022 16:18:31 -74.12, 110.16 117.16 3.88 39
6 08/26/2022 10:12:31 -74.03,-158.36 116.32 08/26/2022 10:11:32 -74.03,-158.32 116.31 1.30 59
7 08/26/2022 11:01:59 74.10, 9.11 63.77 08/26/2022 11:02:11 74.07, 9.12 63.75 2.75 12
8 08/26/2022 11:51:34 -74.59, 175.59 115.70 08/26/2022 11:52:42 -74.59, 177.78 115.76 64.83 68
9 08/29/2022 04:56:29 73.55, 101.68 64.15 08/29/2022 04:55:21 73.52, 99.57 64.20 66.56 68
10 08/29/2022 05:46:04 -74.04, -91.77 115.32 08/29/2022 05:45:52 -74.05, -91.85 115.31 2.74 12
11 08/29/2022 06:35:32 74.12, 75.70 64.78 08/29/2022 06:36:30 74.15, 75.72 64.80 3.23 58
12 09/01/2022 00:30:10 74.06, 167.18 65.69 09/01/2022 00:29:30 74.04, 167.21 65.68 2.26 40
13 09/01/2022 01:19:37 -74.13, -25.35 114.22 09/01/2022 01:20:10 -74.12, -25.26 114.24 2.75 33



Historial Predications of SNOs between AQUA and METOP-B
